Location: Bieg
(49.3499°N, 10.3835°E)
Time: 03:02:19
(UTC+00:00)

Cosmos 1025 Rocket - Visible Passes

Search period start: 09 July 2025 00:00
Search period end: 19 July 2025 00:00
Orbit: 588 x 610 km, 82.5° (Epoch: 08 July)

Date Brightness Start Highest point End Pass type
(mag) Time Alt. Az. Time Alt. Az. Time Alt. Az.
09 Jul 3.9 21:06:24 18° SE 21:08:52 32° E 21:12:46 10° NNE visible
09 Jul 4.7 22:43:07 12° SW 22:46:21 28° WNW 22:50:07 10° N visible
10 Jul 3.3 21:17:07 20° SSE 21:19:48 50° E 21:24:01 10° NNE visible
10 Jul 5.3 22:54:26 10° WSW 22:57:35 19° WNW 23:00:46 10° NNW visible
11 Jul 2.9 21:27:48 19° S 21:30:48 78° E 21:35:09 10° NNE visible
11 Jul 5.6 23:06:40 10° W 23:08:52 14° WNW 23:11:04 10° NNW visible
12 Jul 5.0 20:02:50 10° ESE 20:04:59 14° E 20:07:10 10° NE visible
12 Jul 3.2 21:38:28 16° SSW 21:41:51 69° WNW 21:46:12 10° N visible
13 Jul 4.5 20:12:38 10° SE 20:15:48 20° E 20:19:01 10° NE visible
13 Jul 4.0 21:49:06 12° SSW 21:52:57 45° WNW 21:57:08 10° N visible
14 Jul 4.0 20:22:59 10° SSE 20:26:41 30° E 20:30:30 10° NNE visible
14 Jul 4.7 22:00:17 10° SW 22:04:06 30° WNW 22:07:58 10° N visible
15 Jul 3.4 20:33:33 10° SSE 20:37:37 46° E 20:41:47 10° NNE visible
15 Jul 5.3 22:12:01 10° WSW 22:15:19 21° WNW 22:18:39 10° NNW visible
16 Jul 3.0 20:44:17 10° S 20:48:36 71° E 20:52:57 10° NNE visible
16 Jul 5.7 22:24:08 10° W 22:26:36 15° WNW 22:29:04 10° NNW visible
17 Jul 3.2 20:55:18 10° SSW 20:59:37 75° W 21:04:00 10° N visible
17 Jul 6.2 22:37:47 10° WNW 22:37:56 10° WNW 22:38:02 10° WNW visible
18 Jul 3.9 21:06:30 10° SSW 21:10:42 49° WNW 21:14:58 10° N visible
